SHIYAN 24C 02 (58651 NORAD) Tracking and Keplerian Element Data

This shows tracking and keplerian element data for the satellite.

Feedback or suggestion? Click here.




ElementValue
Catalog58651
NameSHIYAN 24C 02
Epoch Orbit274
Epoch Day13.18276644
Epoch Year2024
RAAN21.3586
Inclination97.334
Eccentricity0.0009243
Argument of Perigee226.9829
Mean Anonmoly133.0626
Mean Motion15.06583068
Decay Rate4.105E-05
L11 58651U 23206B 24013.18276644 .00004105 00000+0 28101-3 0 9990
L22 58651 97.3340 21.3586 0009243 226.9829 133.0626 15.06583068 2740



Live tracking and technical data element details for SHIYAN 24C 02 (NORAD 58651). SHIYAN 24C 02 can be tracked NOW for your location showing map with azimuth and elevation plus other details from your city location.







IsCatalogInMostPopularTable: catalog: 58651, numindb: 22
Update: records affected: 1



GetName: 58651 SHIYAN 24C 02

Hit Count: updated at: Wed, 17 Apr 2024 01:48:45 GMT